Weather History for PACV - February, 2012

Change the Weather History Date:

Sunday, February 12, 2012

  Actual Average Record
Temperature  
Mean Temperature 35 °F -  
Max Temperature 37 °F 34 °F 52 °F (1970)
Min Temperature 33 °F 20 °F -16 °F (1979)
Degree Days  
Heating Degree Days 30    
Moisture  
Dew Point 31 °F    
Average Humidity 89    
Maximum Humidity 96    
Minimum Humidity 67    
Precipitation  
Precipitation 0.49 in - - ()
Snow  
Snow 0.00 in - - ()
Snow Depth 32.00 in    
Sea Level Pressure  
Sea Level Pressure 29.59 in    
Wind  
Wind Speed 7 mph (ESE)    
Max Wind Speed 20 mph    
Max Gust Speed 29 mph    
Visibility 6 miles    
Events Rain , Snow    
Averages and records for this station are not official NWS values.
T = Trace of Precipitation, MM = Missing Value Source: NWS Daily Summary

Daily Weather History Graph

Daily Weather History Graph

Search for Another Location

Airport or City:

Trip Planner

Search our weather history database for the weather conditions in past years. The results will help you decide how hot, cold, wet, or windy it might be!

Date:

Astronomy

Feb. 12, 2012 Rise Set
Actual Time 8:30 AM AKST 5:22 PM AKST
Civil Twilight 7:45 AM AKST 6:07 PM AKST
Nautical Twilight 6:55 AM AKST 6:57 PM AKST
Astronomical Twilight 6:06 AM AKST 7:46 PM AKST
Moon 12:02 AM AKST (2/12) 9:05 AM AKST (2/12)
Length of Visible Light 10h 22m
Length of Day
8h 51m
Waning Gibbous, 71% of the Moon is Illuminated
Feb 12
Waning Gibbous
Feb 14
Last Quarter
Feb 21
New
Feb 29
First Quarter
Mar 8
Full

Hourly Weather History & Observations

Time (AKST) Temp. Windchill Dew Point Humidity Pressure Visibility Wind Dir Wind Speed Gust Speed Precip Events Conditions
12:17 AM 33.8 °F 30.8 °F 30.2 °F 87% 29.33 in 2.0 mi ESE 3.5 mph - 0.03 in Rain , Snow Light Rain
12:34 AM 33.8 °F - 32.0 °F 93% 29.34 in 2.0 mi Calm Calm - 0.06 in Rain , Snow Light Rain
12:44 AM 33.8 °F - 30.2 °F 87% 29.34 in 4.0 mi Calm Calm - 0.06 in Rain , Snow Light Rain
12:53 AM 33.1 °F 30.0 °F 30.9 °F 92% 29.35 in 8.0 mi ESE 3.5 mph - 0.06 in Rain , Snow Light Rain
1:53 AM 34.0 °F 28.8 °F 32.0 °F 92% 29.37 in 9.0 mi ESE 5.8 mph - 0.02 in Rain , Snow Light Rain
2:53 AM 34.0 °F 28.8 °F 32.0 °F 92% 29.40 in 10.0 mi East 5.8 mph - 0.00 in   Overcast
3:53 AM 35.1 °F 31.0 °F 33.1 °F 92% 29.43 in 6.0 mi East 4.6 mph - 0.00 in Rain Light Rain
4:53 AM 34.0 °F 26.6 °F 32.0 °F 92% 29.45 in 5.0 mi East 9.2 mph - 0.01 in Rain Light Rain
5:29 AM 35.6 °F - 32.0 °F 87% 29.47 in 10.0 mi Calm Calm - 0.00 in   Overcast
5:53 AM 35.1 °F 31.0 °F 33.1 °F 92% 29.49 in 10.0 mi ESE 4.6 mph - 0.00 in   Overcast
6:53 AM 35.1 °F 29.3 °F 32.0 °F 89% 29.51 in 8.0 mi ESE 6.9 mph 18.4 mph 0.02 in Rain Light Rain
7:11 AM 35.6 °F 28.0 °F 32.0 °F 87% 29.51 in 10.0 mi ESE 10.4 mph - 0.00 in Rain Light Rain
7:53 AM 35.1 °F 29.3 °F 32.0 °F 89% 29.54 in 3.0 mi SSE 6.9 mph - 0.02 in Rain , Snow Light Rain
7:58 AM 33.8 °F 27.7 °F 32.0 °F 93% 29.54 in 4.0 mi SE 6.9 mph - 0.01 in Rain , Snow Light Rain
8:09 AM 33.8 °F 25.8 °F 32.0 °F 93% 29.55 in 1.8 mi SE 10.4 mph - 0.02 in Rain , Snow Light Rain
8:21 AM 33.8 °F 26.4 °F 30.2 °F 87% 29.55 in 1.5 mi ESE 9.2 mph - 0.04 in Rain , Snow Light Rain
8:29 AM 33.8 °F 27.0 °F 30.2 °F 87% 29.56 in 1.2 mi ESE 8.1 mph - 0.05 in Snow Light Snow
8:43 AM 33.8 °F 26.4 °F 30.2 °F 87% 29.57 in 3.0 mi ESE 9.2 mph - 0.05 in Snow Light Snow
8:53 AM 33.1 °F 25.5 °F 30.9 °F 92% 29.57 in 3.0 mi ESE 9.2 mph - 0.06 in Snow Light Snow
9:15 AM 33.8 °F 27.0 °F 32.0 °F 93% 29.58 in 4.0 mi East 8.1 mph - 0.00 in Snow Light Snow
9:30 AM 33.8 °F 27.0 °F 32.0 °F 93% 29.58 in 9.0 mi East 8.1 mph - 0.00 in Rain Light Rain
9:41 AM 33.8 °F 27.0 °F 32.0 °F 93% 29.59 in 10.0 mi East 8.1 mph - 0.00 in Snow Light Snow
9:53 AM 34.0 °F 25.5 °F 32.0 °F 92% 29.60 in 1.5 mi East 11.5 mph - 0.01 in Snow Light Snow
10:00 AM 33.8 °F 25.8 °F 32.0 °F 93% 29.59 in 1.2 mi East 10.4 mph - 0.01 in Snow Light Snow
10:04 AM 33.8 °F 26.4 °F 32.0 °F 93% 29.59 in 3.0 mi East 9.2 mph - 0.01 in Snow Light Snow
10:21 AM 33.8 °F 26.4 °F 32.0 °F 93% 29.60 in 10.0 mi East 9.2 mph - 0.01 in Rain Light Rain
10:48 AM 33.8 °F 25.8 °F 32.0 °F 93% 29.61 in 6.0 mi East 10.4 mph - 0.02 in Rain Light Rain
10:53 AM 35.1 °F 26.9 °F 32.0 °F 89% 29.61 in 6.0 mi East 11.5 mph - 0.02 in Rain Light Rain
11:53 AM 34.0 °F 25.0 °F 32.0 °F 92% 29.63 in 3.0 mi East 12.7 mph - 0.03 in Snow Light Snow
11:59 AM 33.8 °F 25.8 °F 32.0 °F 93% 29.63 in 1.8 mi East 10.4 mph - 0.01 in Snow Light Snow
12:07 PM 33.8 °F 25.8 °F 32.0 °F 93% 29.63 in 2.0 mi East 10.4 mph - 0.01 in Snow Light Snow
12:17 PM 33.8 °F 25.8 °F 32.0 °F 93% 29.63 in 4.0 mi East 10.4 mph - 0.01 in Snow Light Snow
12:27 PM 33.8 °F 26.4 °F 32.0 °F 93% 29.63 in 1.8 mi ESE 9.2 mph - 0.03 in Snow Light Snow
12:33 PM 33.8 °F 27.0 °F 32.0 °F 93% 29.64 in 2.0 mi ESE 8.1 mph - 0.04 in Snow Light Snow
12:44 PM 35.6 °F 29.2 °F 33.8 °F 93% 29.64 in 4.0 mi SE 8.1 mph - 0.06 in Snow Light Snow
12:53 PM 35.1 °F 27.9 °F 33.1 °F 92% 29.65 in 5.0 mi SE 9.2 mph - 0.06 in Rain Light Rain
1:13 PM 33.8 °F 25.3 °F 32.0 °F 93% 29.65 in 1.8 mi ESE 11.5 mph 18.4 mph 0.03 in Snow Light Snow
1:44 PM 33.8 °F 25.3 °F 32.0 °F 93% 29.66 in 2.5 mi ESE 11.5 mph - 0.07 in Snow Light Snow
1:53 PM 33.1 °F 26.1 °F 32.0 °F 96% 29.66 in 1.8 mi ESE 8.1 mph - 0.07 in Snow Light Snow
2:38 PM 33.8 °F 27.7 °F 32.0 °F 93% 29.68 in 3.0 mi ESE 6.9 mph - 0.05 in Snow Light Snow
2:53 PM 34.0 °F 28.0 °F 32.0 °F 92% 29.68 in 7.0 mi East 6.9 mph - 0.06 in Rain Light Rain
3:53 PM 36.0 °F 29.6 °F 33.1 °F 89% 29.68 in 7.0 mi ESE 8.1 mph - 0.00 in Rain Light Rain
4:44 PM 35.6 °F 29.2 °F 33.8 °F 93% 29.69 in 8.0 mi ESE 8.1 mph - 0.00 in   Overcast
4:53 PM 36.0 °F 29.0 °F 33.1 °F 89% 29.69 in 8.0 mi ESE 9.2 mph - 0.00 in   Overcast
5:53 PM 35.1 °F 29.3 °F 30.9 °F 85% 29.70 in 3.0 mi ESE 6.9 mph - 0.05 in Rain Light Rain
6:08 PM 35.6 °F 28.6 °F 32.0 °F 87% 29.69 in 8.0 mi East 9.2 mph - 0.00 in   Mostly Cloudy
6:53 PM 36.0 °F 29.0 °F 30.9 °F 82% 29.70 in 10.0 mi ESE 9.2 mph - 0.00 in   Overcast
7:17 PM 35.6 °F 26.6 °F 30.2 °F 81% 29.71 in 10.0 mi ESE 13.8 mph 18.4 mph 0.00 in Rain Light Rain
7:30 PM 35.6 °F 26.6 °F 30.2 °F 81% 29.71 in 10.0 mi ESE 13.8 mph 20.7 mph 0.00 in   Mostly Cloudy
7:53 PM 36.0 °F 27.5 °F 30.0 °F 79% 29.72 in 10.0 mi ESE 12.7 mph 20.7 mph 0.00 in   Mostly Cloudy
8:53 PM 37.0 °F 27.7 °F 28.0 °F 70% 29.70 in 10.0 mi ESE 16.1 mph 23.0 mph N/A   Overcast
9:53 PM 37.0 °F 27.0 °F 27.0 °F 67% 29.68 in 9.0 mi SE 18.4 mph 26.5 mph 0.00 in Snow Light Snow
10:15 PM 35.6 °F 26.2 °F 28.4 °F 75% 29.67 in 5.0 mi ESE 15.0 mph 24.2 mph 0.00 in Rain , Snow Light Rain
10:39 PM 33.8 °F 23.5 °F 30.2 °F 87% 29.67 in 2.0 mi ESE 16.1 mph 25.3 mph 0.00 in Rain , Snow Light Rain
10:48 PM 35.6 °F 26.2 °F 30.2 °F 81% 29.66 in 9.0 mi East 15.0 mph 25.3 mph 0.00 in Rain , Snow Light Rain
10:53 PM 35.1 °F 25.5 °F 30.0 °F 82% 29.66 in 10.0 mi East 15.0 mph 25.3 mph 0.00 in Rain Light Rain
11:01 PM 35.6 °F 26.6 °F 30.2 °F 81% 29.66 in 9.0 mi ESE 13.8 mph 21.9 mph 0.00 in Rain Light Rain
11:27 PM 33.8 °F 23.5 °F 30.2 °F 87% 29.65 in 4.0 mi ESE 16.1 mph 28.8 mph 0.00 in Rain , Snow Light Rain
11:53 PM 34.0 °F 22.7 °F 30.0 °F 85% 29.63 in 3.0 mi ESE 19.6 mph 27.6 mph 0.00 in Rain , Snow Light Rain